Regional Weather Roundup
Issued by NWS Memphis, TN

Home | Current Version | Previous Version | Text Only | Print | Product List | Glossary On
Versions: 1 2 3 4 5 6 7 8 9 10 11 12 13 14 15 16 17 18 19 20 21 22 23 24 25 26 27 28 29 30 31 32 33 34 35 36 37 38 39 40 41 42 43 44 45 46 47 48 49 50
000
ASUS44 KMEG 011910
RWRMEG
MEMPHIS CWA HOURLY WEATHER ROUNDUP
NATIONAL WEATHER SERVICE MEMPHIS TN
100 PM CST SUN MAR 01 2015

...WEST TENNESSEE...

CITY           SKY/WX    TMP DP  RH WIND       PRES   REMARKS
MEMPHIS INTL   LGT RAIN  44  41  89 NW5       30.34S VSB 1
NWS MEMPHIS      N/A     43 N/A N/A MISG        N/A
JACKSON        CLOUDY    49  46  90 N3        30.32F
LEXINGTON      CLOUDY    48  48 100 S6        30.32F
SAVANNAH       CLOUDY    50  50 100 S6        30.34F
DYERSBURG      CLOUDY    39  27  60 CALM      30.36F
UNION CITY     CLOUDY    37  37 100 W5        30.33F WCI  34
PARIS          CLOUDY    41  39  93 SW5       30.33F


...EASTERN ARKANSAS...

CITY           SKY/WX    TMP DP  RH WIND       PRES   REMARKS
JONESBORO      CLOUDY    35  32  88 N6        30.35F WCI  30
WEST MEMPHIS   LGT RAIN  41  41 100 CALM      30.33F FOG
BATESVILLE     CLOUDY    37  34  87 W5        30.36F WCI  34
NEWPORT        CLOUDY    37  34  89 N3        30.38F
WALNUT RIDGE   CLOUDY    36  30  80 N3        30.37F
BLYTHEVILLE    CLOUDY    37  36  96 NW10      30.35F FOG     WCI  30
SEARCY         LGT RAIN  39  37  92 NW5       30.38F FOG
STUTTGART      CLOUDY    37  36  93 N5        30.34F WCI  34
PINE BLUFF     CLOUDY    36  34  92 NW5       30.34F FOG     WCI  32
MONTICELLO     CLOUDY    38  36  92 NE6       30.32F FOG     WCI  33


...NORTH MISSISSIPPI...

CITY           SKY/WX    TMP DP  RH WIND       PRES   REMARKS
TUPELO         LGT RAIN  52  49  89 SE3       30.33F FOG
OXFORD         CLOUDY    50  50 100 SE3       30.34R FOG
OLIVE BRANCH   LGT RAIN  43  43 100 CALM      30.33F FOG
TUNICA         CLOUDY    39  37  93 NW7       30.35F FOG     WCI  34
CLARKSDALE     CLOUDY    39  39 100 NW10      30.35F WCI  32
CORINTH        CLOUDY    54  50  87 S7        30.32F
GREENWOOD        N/A    N/A N/A N/A MISG      30.31F
COLUMBUS       CLOUDY    55  50  82 SE6       30.35F
STARKVILLE     CLOUDY    52  50  93 SE6       30.33F
GOLDEN TRIANGL CLOUDY    52  48  87 SE7       30.35F FOG


...SOUTHEAST MISSOURI...

CITY           SKY/WX    TMP DP  RH WIND       PRES   REMARKS
WEST PLAINS    CLOUDY    35  31  85 NW6       30.32F WCI  30
POPLAR BLUFF   CLOUDY    37  29  72 W3        30.34F
CAPE GIRARDEAU CLOUDY    36  32  85 N3        30.35F


...NORTHWEST ALABAMA...

CITY           SKY/WX    TMP DP  RH WIND       PRES   REMARKS
MUSCLE SHOALS  RAIN      52  48  87 S3        30.37F FOG


...MIDDLE TENNESSEE...

CITY           SKY/WX    TMP DP  RH WIND       PRES   REMARKS
NASHVILLE      RAIN      50  48  93 S6        30.34F FOG
CLARKSVILLE    CLOUDY    43  42  97 S9        30.32F FOG
COLUMBIA       CLOUDY   N/A N/A N/A S3        30.33F


...WESTERN KENTUCKY...

CITY           SKY/WX    TMP DP  RH WIND       PRES   REMARKS
PADUCAH        CLOUDY    38  30  73 W8        30.33F WCI  32
FORT CAMPBELL  CLOUDY    44  42  96 S6        30.32S FOG


...CENTRAL ARKANSAS...

CITY           SKY/WX    TMP DP  RH WIND       PRES   REMARKS
LITTLE ROCK    LGT RAIN  39  37  92 N3        30.36F FOG


SKY/WX REPORTED AS FAIR MEANS FEW OR NO CLOUDS BELOW
12 THOUSAND FEET.




USA.gov is the U.S. government's official web portal to all federal, state and local government web resources and services.